contact:dominique.lefevre@mio.osupytheas.fr, maurice.libes@osupytheas.fr, didier.mallarino@osupytheas.fr
Project:EMSO http://www.emso-fr.org/EMSO-France
Depth: 2436.0 m
Title:EMSO Ligure Ouest : Data MII capteur CSTAR
DateTime,Latitude,Longitude,Instrument_Serial,Reference_Counts,Signal_Counts,Corrected_Signal_raw_counts,Calculated_Beam_c_inverse_meters,Internal_thermistor_counts
DateTime,Latitude,Longitude,Instrument_Serial,Reference_Counts,Signal_Counts,Corrected_Signal_raw_counts,Calculated_Beam_c_inverse_meters,Internal_thermistor_counts
2023-04-12T00:00:32,42.805,6.029,CST-1368DR,4325,4662,11447,01.242,551
2023-04-12T00:03:34,42.805,6.029,CST-1368DR,4325,4660,11441,01.244,551
2023-04-12T00:06:35,42.805,6.029,CST-1368DR,4325,4659,11440,01.245,551
2023-04-12T00:09:37,42.805,6.029,CST-1368DR,4325,4656,11432,01.248,552
2023-04-12T00:12:38,42.805,6.029,CST-1368DR,4325,4658,11436,01.246,551
2023-04-12T00:15:40,42.805,6.029,CST-1368DR,4325,4659,11438,01.245,551
2023-04-12T00:18:41,42.805,6.029,CST-1368DR,4325,4658,11436,01.246,551
2023-04-12T00:21:43,42.805,6.029,CST-1368DR,4325,4665,11453,01.240,552
2023-04-12T00:24:45,42.805,6.029,CST-1368DR,4325,4661,11445,01.243,551
2023-04-12T00:27:46,42.805,6.029,CST-1368DR,4325,4667,11458,01.238,551
2023-04-12T00:30:48,42.805,6.029,CST-1368DR,4325,4665,11454,01.240,551
2023-04-12T00:33:49,42.805,6.029,CST-1368DR,4325,4666,11455,01.239,551
2023-04-12T00:36:51,42.805,6.029,CST-1368DR,4324,4657,11436,01.246,551
2023-04-12T00:39:53,42.805,6.029,CST-1368DR,4325,4658,11436,01.246,551
2023-04-12T00:42:54,42.805,6.029,CST-1368DR,4325,4669,11464,01.236,551
2023-04-12T00:45:56,42.805,6.029,CST-1368DR,4325,4655,11430,01.248,551
2023-04-12T00:48:57,42.805,6.029,CST-1368DR,4325,4661,11443,01.244,551
2023-04-12T00:51:59,42.805,6.029,CST-1368DR,4325,4658,11436,01.246,551
2023-04-12T00:55:00,42.805,6.029,CST-1368DR,4325,4661,11443,01.244,551
2023-04-12T00:58:02,42.805,6.029,CST-1368DR,4324,4658,11438,01.245,551
2023-04-12T01:01:04,42.805,6.029,CST-1368DR,4325,4663,11448,01.242,551
2023-04-12T01:04:05,42.805,6.029,CST-1368DR,4325,4663,11449,01.242,551
2023-04-12T01:07:07,42.805,6.029,CST-1368DR,4325,4662,11446,01.243,551
2023-04-12T01:10:08,42.805,6.029,CST-1368DR,4325,4656,11433,01.247,551
2023-04-12T01:13:10,42.805,6.029,CST-1368DR,4324,4656,11435,01.246,551
2023-04-12T01:16:11,42.805,6.029,CST-1368DR,4325,4655,11429,01.249,551
2023-04-12T01:19:13,42.805,6.029,CST-1368DR,4324,4657,11436,01.246,551
2023-04-12T01:22:15,42.805,6.029,CST-1368DR,4324,4656,11434,01.247,551
2023-04-12T01:25:16,42.805,6.029,CST-1368DR,4325,4661,11444,01.243,551
2023-04-12T01:28:18,42.805,6.029,CST-1368DR,4325,4655,11430,01.248,551
2023-04-12T01:31:19,42.805,6.029,CST-1368DR,4325,4664,11451,01.241,552
2023-04-12T01:34:21,42.805,6.029,CST-1368DR,4325,4654,11427,01.249,551
2023-04-12T01:37:22,42.805,6.029,CST-1368DR,4324,4652,11424,01.250,551
2023-04-12T01:40:24,42.805,6.029,CST-1368DR,4324,4651,11422,01.251,551
2023-04-12T01:43:26,42.805,6.029,CST-1368DR,4325,4657,11433,01.247,551
2023-04-12T01:46:27,42.805,6.029,CST-1368DR,4324,4651,11422,01.251,551
2023-04-12T01:49:29,42.805,6.029,CST-1368DR,4325,4657,11434,01.247,551
2023-04-12T01:52:30,42.805,6.029,CST-1368DR,4325,4666,11456,01.239,551
2023-04-12T01:55:32,42.805,6.029,CST-1368DR,4324,4661,11446,01.243,551
2023-04-12T01:58:34,42.805,6.029,CST-1368DR,4325,4664,11452,01.241,551
2023-04-12T02:01:35,42.805,6.029,CST-1368DR,4324,4662,11449,01.242,551
2023-04-12T02:04:37,42.805,6.029,CST-1368DR,4325,4668,11462,01.237,551
2023-04-12T02:07:38,42.805,6.029,CST-1368DR,4324,4667,11462,01.237,551
2023-04-12T02:10:40,42.805,6.029,CST-1368DR,4325,4664,11451,01.241,551
2023-04-12T02:13:41,42.805,6.029,CST-1368DR,4324,4660,11443,01.244,551
2023-04-12T02:16:43,42.805,6.029,CST-1368DR,4325,4665,11453,01.240,551
2023-04-12T02:19:45,42.805,6.029,CST-1368DR,4324,4661,11447,01.242,552
2023-04-12T02:22:46,42.805,6.029,CST-1368DR,4325,4662,11447,01.242,551
2023-04-12T02:25:48,42.805,6.029,CST-1368DR,4324,4664,11455,01.239,552
2023-04-12T02:28:49,42.805,6.029,CST-1368DR,4325,4666,11455,01.239,552
2023-04-12T02:31:51,42.805,6.029,CST-1368DR,4325,4668,11462,01.237,551
2023-04-12T02:34:52,42.805,6.029,CST-1368DR,4324,4663,11451,01.241,551
2023-04-12T02:37:54,42.805,6.029,CST-1368DR,4324,4663,11452,01.241,551
2023-04-12T02:40:56,42.805,6.029,CST-1368DR,4325,4662,11447,01.242,551
2023-04-12T02:43:57,42.805,6.029,CST-1368DR,4325,4670,11465,01.236,551
2023-04-12T02:46:59,42.805,6.029,CST-1368DR,4325,4665,11455,01.239,551
2023-04-12T02:50:00,42.805,6.029,CST-1368DR,4325,4664,11452,01.241,552
2023-04-12T02:53:02,42.805,6.029,CST-1368DR,4325,4662,11447,01.242,551
2023-04-12T02:56:04,42.805,6.029,CST-1368DR,4325,4665,11454,01.240,551
2023-04-12T02:59:05,42.805,6.029,CST-1368DR,4325,4663,11450,01.241,551
2023-04-12T03:02:07,42.805,6.029,CST-1368DR,4325,4663,11449,01.242,551
2023-04-12T03:05:08,42.805,6.029,CST-1368DR,4325,4668,11460,01.238,551
2023-04-12T03:08:10,42.805,6.029,CST-1368DR,4324,4661,11447,01.242,551
2023-04-12T03:11:11,42.805,6.029,CST-1368DR,4325,4671,11468,01.235,551
2023-04-12T03:14:13,42.805,6.029,CST-1368DR,4325,4662,11447,01.242,551
2023-04-12T03:17:15,42.805,6.029,CST-1368DR,4324,4661,11447,01.242,551
2023-04-12T03:20:16,42.805,6.029,CST-1368DR,4325,4662,11446,01.243,551
2023-04-12T03:23:18,42.805,6.029,CST-1368DR,4325,4668,11461,01.237,551
2023-04-12T03:26:19,42.805,6.029,CST-1368DR,4325,4668,11462,01.237,551
2023-04-12T03:29:21,42.805,6.029,CST-1368DR,4324,4662,11450,01.241,551
2023-04-12T03:32:23,42.805,6.029,CST-1368DR,4324,4663,11451,01.241,551
2023-04-12T03:35:24,42.805,6.029,CST-1368DR,4324,4667,11462,01.237,551
2023-04-12T03:38:26,42.805,6.029,CST-1368DR,4325,4665,11453,01.240,551
2023-04-12T03:41:27,42.805,6.029,CST-1368DR,4324,4670,11469,01.235,551
2023-04-12T03:44:29,42.805,6.029,CST-1368DR,4324,4668,11464,01.236,551
2023-04-12T03:47:30,42.805,6.029,CST-1368DR,4324,4668,11465,01.236,551
2023-04-12T03:50:32,42.805,6.029,CST-1368DR,4324,4662,11450,01.241,551
2023-04-12T03:53:34,42.805,6.029,CST-1368DR,4324,4662,11450,01.241,551
2023-04-12T03:56:35,42.805,6.029,CST-1368DR,4325,4662,11446,01.243,551
2023-04-12T03:59:37,42.805,6.029,CST-1368DR,4324,4664,11454,01.240,551
2023-04-12T04:02:38,42.805,6.029,CST-1368DR,4325,4664,11452,01.241,551
2023-04-12T04:05:40,42.805,6.029,CST-1368DR,4324,4662,11448,01.242,551
2023-04-12T04:08:41,42.805,6.029,CST-1368DR,4325,4665,11453,01.240,551
2023-04-12T04:11:43,42.805,6.029,CST-1368DR,4324,4661,11447,01.242,551
2023-04-12T04:14:45,42.805,6.029,CST-1368DR,4325,4663,11449,01.242,551
2023-04-12T04:17:46,42.805,6.029,CST-1368DR,4325,4661,11444,01.243,551
2023-04-12T04:20:48,42.805,6.029,CST-1368DR,4325,4666,11457,01.239,552
2023-04-12T04:23:49,42.805,6.029,CST-1368DR,4324,4661,11446,01.243,551
2023-04-12T04:26:51,42.805,6.029,CST-1368DR,4324,4661,11447,01.242,551
2023-04-12T04:29:53,42.805,6.029,CST-1368DR,4325,4665,11454,01.240,551
2023-04-12T04:32:55,42.805,6.029,CST-1368DR,4325,4664,11452,01.241,551
2023-04-12T04:35:56,42.805,6.029,CST-1368DR,4325,4669,11464,01.236,551
2023-04-12T04:38:58,42.805,6.029,CST-1368DR,4325,4662,11446,01.243,551
2023-04-12T04:42:00,42.805,6.029,CST-1368DR,4325,4668,11462,01.237,551
2023-04-12T04:45:01,42.805,6.029,CST-1368DR,4325,4669,11464,01.236,551
2023-04-12T04:48:03,42.805,6.029,CST-1368DR,4325,4662,11447,01.242,551
2023-04-12T04:51:04,42.805,6.029,CST-1368DR,4324,4661,11446,01.243,551
2023-04-12T04:54:06,42.805,6.029,CST-1368DR,4325,4661,11445,01.243,551
2023-04-12T04:57:07,42.805,6.029,CST-1368DR,4325,4664,11452,01.241,551
2023-04-12T05:00:09,42.805,6.029,CST-1368DR,4325,4664,11452,01.241,551
2023-04-12T05:03:11,42.805,6.029,CST-1368DR,4325,4660,11441,01.244,551
2023-04-12T05:06:12,42.805,6.029,CST-1368DR,4325,4665,11454,01.240,551
2023-04-12T05:09:14,42.805,6.029,CST-1368DR,4325,4657,11435,01.246,551
2023-04-12T05:12:15,42.805,6.029,CST-1368DR,4325,4661,11443,01.244,552
2023-04-12T05:15:17,42.805,6.029,CST-1368DR,4325,4661,11443,01.244,551
2023-04-12T05:18:18,42.805,6.029,CST-1368DR,4325,4664,11452,01.241,551
2023-04-12T05:21:20,42.805,6.029,CST-1368DR,4324,4656,11433,01.247,551
2023-04-12T05:24:22,42.805,6.029,CST-1368DR,4324,4654,11429,01.249,551
2023-04-12T05:27:23,42.805,6.029,CST-1368DR,4324,4655,11433,01.247,551
2023-04-12T05:30:25,42.805,6.029,CST-1368DR,4324,4672,11473,01.233,551
2023-04-12T05:33:26,42.805,6.029,CST-1368DR,4325,4669,11464,01.236,551
2023-04-12T05:36:28,42.805,6.029,CST-1368DR,4324,4660,11443,01.244,551
2023-04-12T05:39:29,42.805,6.029,CST-1368DR,4324,4661,11447,01.242,551
2023-04-12T05:42:31,42.805,6.029,CST-1368DR,4324,4664,11455,01.239,551
2023-04-12T05:45:33,42.805,6.029,CST-1368DR,4324,4663,11451,01.241,551
2023-04-12T05:48:34,42.805,6.029,CST-1368DR,4324,4657,11437,01.246,551
2023-04-12T05:51:36,42.805,6.029,CST-1368DR,4324,4662,11449,01.242,551
2023-04-12T05:54:37,42.805,6.029,CST-1368DR,4324,4663,11451,01.241,551
2023-04-12T05:57:39,42.805,6.029,CST-1368DR,4324,4664,11455,01.239,551
2023-04-12T06:00:41,42.805,6.029,CST-1368DR,4324,4660,11443,01.244,551
2023-04-12T06:03:42,42.805,6.029,CST-1368DR,4324,4660,11444,01.243,551
2023-04-12T06:06:44,42.805,6.029,CST-1368DR,4324,4661,11447,01.242,551
2023-04-12T06:09:45,42.805,6.029,CST-1368DR,4324,4660,11443,01.244,551
2023-04-12T06:12:47,42.805,6.029,CST-1368DR,4324,4662,11450,01.241,551
2023-04-12T06:15:48,42.805,6.029,CST-1368DR,4324,4666,11458,01.238,552
2023-04-12T06:18:50,42.805,6.029,CST-1368DR,4324,4662,11448,01.242,551
2023-04-12T06:21:52,42.805,6.029,CST-1368DR,4324,4662,11449,01.242,551
2023-04-12T06:24:53,42.805,6.029,CST-1368DR,4324,4663,11452,01.241,551
2023-04-12T06:27:55,42.805,6.029,CST-1368DR,4324,4666,11458,01.238,551
2023-04-12T06:30:56,42.805,6.029,CST-1368DR,4324,4662,11449,01.242,551
2023-04-12T06:33:58,42.805,6.029,CST-1368DR,4324,4665,11457,01.239,551
2023-04-12T06:36:59,42.805,6.029,CST-1368DR,4324,4669,11465,01.236,551
2023-04-12T06:40:01,42.805,6.029,CST-1368DR,4324,4668,11463,01.237,551
2023-04-12T06:43:03,42.805,6.029,CST-1368DR,4324,4668,11465,01.236,551
2023-04-12T06:46:04,42.805,6.029,CST-1368DR,4324,4666,11460,01.238,551
2023-04-12T06:49:06,42.805,6.029,CST-1368DR,4324,4664,11454,01.240,551
2023-04-12T06:52:07,42.805,6.029,CST-1368DR,4324,4649,11418,01.252,551
2023-04-12T06:55:09,42.805,6.029,CST-1368DR,4324,4668,11465,01.236,551
2023-04-12T06:58:11,42.805,6.029,CST-1368DR,4324,4668,11463,01.237,551
2023-04-12T07:01:12,42.805,6.029,CST-1368DR,4324,4671,11472,01.234,551
2023-04-12T07:04:14,42.805,6.029,CST-1368DR,4324,4672,11473,01.233,551
2023-04-12T07:07:15,42.805,6.029,CST-1368DR,4324,4661,11447,01.242,551
2023-04-12T07:10:17,42.805,6.029,CST-1368DR,4324,4669,11467,01.235,551
2023-04-12T07:13:18,42.805,6.029,CST-1368DR,4324,4668,11463,01.237,551
2023-04-12T07:16:20,42.805,6.029,CST-1368DR,4324,4670,11468,01.235,551
2023-04-12T07:19:22,42.805,6.029,CST-1368DR,4324,4668,11463,01.237,551
2023-04-12T07:22:23,42.805,6.029,CST-1368DR,4324,4668,11465,01.236,551
2023-04-12T07:25:25,42.805,6.029,CST-1368DR,4324,4667,11462,01.237,551
2023-04-12T07:28:26,42.805,6.029,CST-1368DR,4324,4663,11452,01.241,551
2023-04-12T07:31:28,42.805,6.029,CST-1368DR,4324,4666,11459,01.238,551
2023-04-12T07:34:29,42.805,6.029,CST-1368DR,4324,4671,11470,01.234,551
2023-04-12T07:37:31,42.805,6.029,CST-1368DR,4324,4666,11460,01.238,551
2023-04-12T07:40:33,42.805,6.029,CST-1368DR,4324,4665,11457,01.239,551
2023-04-12T07:43:34,42.805,6.029,CST-1368DR,4324,4666,11460,01.238,551
2023-04-12T07:46:36,42.805,6.029,CST-1368DR,4324,4671,11472,01.234,551
2023-04-12T07:49:37,42.805,6.029,CST-1368DR,4324,4666,11460,01.238,551
2023-04-12T07:52:39,42.805,6.029,CST-1368DR,4324,4669,11465,01.236,551
2023-04-12T07:55:40,42.805,6.029,CST-1368DR,4324,4665,11457,01.239,551
2023-04-12T07:58:42,42.805,6.029,CST-1368DR,4324,4670,11469,01.235,551
2023-04-12T08:01:44,42.805,6.029,CST-1368DR,4324,4664,11455,01.239,551
2023-04-12T08:04:45,42.805,6.029,CST-1368DR,4324,4666,11459,01.238,551
2023-04-12T08:07:47,42.805,6.029,CST-1368DR,4324,4669,11465,01.236,551
2023-04-12T08:10:48,42.805,6.029,CST-1368DR,4324,4665,11457,01.239,551
2023-04-12T08:13:50,42.805,6.029,CST-1368DR,4324,4668,11464,01.236,551
2023-04-12T08:16:51,42.805,6.029,CST-1368DR,4324,4670,11469,01.235,551
2023-04-12T08:19:53,42.805,6.029,CST-1368DR,4324,4664,11454,01.240,551
2023-04-12T08:22:55,42.805,6.029,CST-1368DR,4324,4666,11459,01.238,551
2023-04-12T08:25:56,42.805,6.029,CST-1368DR,4324,4669,11467,01.235,551
2023-04-12T08:28:58,42.805,6.029,CST-1368DR,4324,4666,11459,01.238,551
2023-04-12T08:31:59,42.805,6.029,CST-1368DR,4324,4664,11454,01.240,551
2023-04-12T08:35:01,42.805,6.029,CST-1368DR,4324,4670,11468,01.235,551
2023-04-12T08:38:03,42.805,6.029,CST-1368DR,4324,4671,11471,01.234,551
2023-04-12T08:41:04,42.805,6.029,CST-1368DR,4324,4671,11472,01.234,551
2023-04-12T08:44:06,42.805,6.029,CST-1368DR,4324,4667,11462,01.237,551
2023-04-12T08:47:07,42.805,6.029,CST-1368DR,4324,4671,11470,01.234,551
2023-04-12T08:50:09,42.805,6.029,CST-1368DR,4324,4669,11466,01.236,551
2023-04-12T08:53:10,42.805,6.029,CST-1368DR,4324,4669,11465,01.236,551
2023-04-12T08:56:12,42.805,6.029,CST-1368DR,4324,4667,11461,01.237,551
2023-04-12T08:59:14,42.805,6.029,CST-1368DR,4324,4659,11441,01.244,551
2023-04-12T09:02:15,42.805,6.029,CST-1368DR,4324,4667,11461,01.237,551
2023-04-12T09:05:17,42.805,6.029,CST-1368DR,4324,4671,11471,01.234,551
2023-04-12T09:08:18,42.805,6.029,CST-1368DR,4324,4666,11459,01.238,551
2023-04-12T09:11:20,42.805,6.029,CST-1368DR,4324,4665,11455,01.239,551
2023-04-12T09:14:21,42.805,6.029,CST-1368DR,4324,4666,11460,01.238,551
2023-04-12T09:17:23,42.805,6.029,CST-1368DR,4324,4665,11457,01.239,551
2023-04-12T09:20:25,42.805,6.029,CST-1368DR,4324,4669,11466,01.236,551
2023-04-12T09:23:26,42.805,6.029,CST-1368DR,4324,4671,11471,01.234,552
2023-04-12T09:26:28,42.805,6.029,CST-1368DR,4324,4664,11454,01.240,551
2023-04-12T09:29:29,42.805,6.029,CST-1368DR,4324,4669,11466,01.236,551
2023-04-12T09:32:31,42.805,6.029,CST-1368DR,4324,4670,11469,01.235,551
2023-04-12T09:35:33,42.805,6.029,CST-1368DR,4324,4666,11458,01.238,551
2023-04-12T09:38:34,42.805,6.029,CST-1368DR,4324,4666,11458,01.238,551
2023-04-12T09:41:36,42.805,6.029,CST-1368DR,4324,4663,11452,01.241,551
2023-04-12T09:44:37,42.805,6.029,CST-1368DR,4324,4672,11473,01.233,551
2023-04-12T09:47:39,42.805,6.029,CST-1368DR,4324,4666,11459,01.238,551
2023-04-12T09:50:40,42.805,6.029,CST-1368DR,4324,4663,11452,01.241,551
2023-04-12T09:53:42,42.805,6.029,CST-1368DR,4324,4668,11463,01.237,551
2023-04-12T09:56:44,42.805,6.029,CST-1368DR,4324,4670,11468,01.235,551
2023-04-12T09:59:45,42.805,6.029,CST-1368DR,4324,4667,11460,01.238,552
2023-04-12T10:02:47,42.805,6.029,CST-1368DR,4324,4666,11459,01.238,551
2023-04-12T10:05:48,42.805,6.029,CST-1368DR,4324,4668,11464,01.236,551
2023-04-12T10:08:50,42.805,6.029,CST-1368DR,4324,4671,11472,01.234,552
2023-04-12T10:11:51,42.805,6.029,CST-1368DR,4324,4668,11463,01.237,551
2023-04-12T10:14:53,42.805,6.029,CST-1368DR,4324,4668,11463,01.237,551
2023-04-12T10:17:55,42.805,6.029,CST-1368DR,4324,4666,11459,01.238,551
2023-04-12T10:20:56,42.805,6.029,CST-1368DR,4324,4669,11465,01.236,551
2023-04-12T10:23:58,42.805,6.029,CST-1368DR,4324,4666,11458,01.238,551
2023-04-12T10:26:59,42.805,6.029,CST-1368DR,4324,4666,11459,01.238,551
2023-04-12T10:30:01,42.805,6.029,CST-1368DR,4324,4669,11465,01.236,551
2023-04-12T10:33:03,42.805,6.029,CST-1368DR,4324,4668,11463,01.237,551
2023-04-12T10:36:04,42.805,6.029,CST-1368DR,4324,4667,11462,01.237,551
2023-04-12T10:39:06,42.805,6.029,CST-1368DR,4324,4668,11463,01.237,551
2023-04-12T10:42:07,42.805,6.029,CST-1368DR,4324,4661,11446,01.243,551
2023-04-12T10:45:09,42.805,6.029,CST-1368DR,4324,4667,11462,01.237,551
2023-04-12T10:48:10,42.805,6.029,CST-1368DR,4324,4670,11468,01.235,551
2023-04-12T10:51:12,42.805,6.029,CST-1368DR,4324,4669,11466,01.236,551
2023-04-12T10:54:14,42.805,6.029,CST-1368DR,4324,4671,11471,01.234,551
2023-04-12T10:57:15,42.805,6.029,CST-1368DR,4324,4668,11463,01.237,551
2023-04-12T11:00:17,42.805,6.029,CST-1368DR,4324,4667,11460,01.238,551
2023-04-12T11:03:18,42.805,6.029,CST-1368DR,4324,4667,11460,01.238,551
2023-04-12T11:06:20,42.805,6.029,CST-1368DR,4324,4666,11458,01.238,551
2023-04-12T11:09:21,42.805,6.029,CST-1368DR,4324,4661,11447,01.242,551
2023-04-12T11:12:23,42.805,6.029,CST-1368DR,4324,4666,11459,01.238,551
2023-04-12T11:15:25,42.805,6.029,CST-1368DR,4324,4665,11456,01.239,551
2023-04-12T11:18:26,42.805,6.029,CST-1368DR,4324,4669,11466,01.236,551
2023-04-12T11:21:28,42.805,6.029,CST-1368DR,4324,4665,11456,01.239,551
2023-04-12T11:24:29,42.805,6.029,CST-1368DR,4324,4665,11457,01.239,551
2023-04-12T11:27:31,42.805,6.029,CST-1368DR,4324,4664,11455,01.239,551
2023-04-12T11:30:33,42.805,6.029,CST-1368DR,4324,4668,11464,01.236,551
2023-04-12T11:33:34,42.805,6.029,CST-1368DR,4324,4667,11462,01.237,551
2023-04-12T11:36:36,42.805,6.029,CST-1368DR,4324,4669,11465,01.236,551
2023-04-12T11:39:37,42.805,6.029,CST-1368DR,4324,4666,11460,01.238,551
2023-04-12T11:42:39,42.805,6.029,CST-1368DR,4324,4666,11460,01.238,551
2023-04-12T11:45:40,42.805,6.029,CST-1368DR,4324,4666,11458,01.238,551
2023-04-12T11:48:42,42.805,6.029,CST-1368DR,4324,4673,11475,01.233,551
2023-04-12T11:51:44,42.805,6.029,CST-1368DR,4324,4663,11451,01.241,551
2023-04-12T11:54:45,42.805,6.029,CST-1368DR,4324,4663,11452,01.241,551
2023-04-12T11:57:47,42.805,6.029,CST-1368DR,4324,4668,11463,01.237,551
2023-04-12T12:00:48,42.805,6.029,CST-1368DR,4324,4665,11457,01.239,551
2023-04-12T12:03:50,42.805,6.029,CST-1368DR,4324,4666,11460,01.238,551
2023-04-12T12:06:51,42.805,6.029,CST-1368DR,4324,4665,11456,01.239,552
2023-04-12T12:09:53,42.805,6.029,CST-1368DR,4324,4670,11468,01.235,551
2023-04-12T12:12:55,42.805,6.029,CST-1368DR,4324,4667,11462,01.237,551
2023-04-12T12:15:56,42.805,6.029,CST-1368DR,4324,4669,11467,01.235,551
2023-04-12T12:18:58,42.805,6.029,CST-1368DR,4324,4661,11447,01.242,551
2023-04-12T12:21:59,42.805,6.029,CST-1368DR,4324,4664,11454,01.240,551
2023-04-12T12:25:01,42.805,6.029,CST-1368DR,4324,4666,11458,01.238,551
2023-04-12T12:28:03,42.805,6.029,CST-1368DR,4324,4665,11457,01.239,551
2023-04-12T12:31:05,42.805,6.029,CST-1368DR,4324,4666,11459,01.238,551
2023-04-12T12:34:07,42.805,6.029,CST-1368DR,4324,4665,11455,01.239,551
2023-04-12T12:37:08,42.805,6.029,CST-1368DR,4324,4665,11457,01.239,551
2023-04-12T12:40:10,42.805,6.029,CST-1368DR,4324,4666,11459,01.238,551
2023-04-12T12:43:12,42.805,6.029,CST-1368DR,4324,4662,11450,01.241,551
2023-04-12T12:46:13,42.805,6.029,CST-1368DR,4324,4671,11470,01.234,551
2023-04-12T12:49:15,42.805,6.029,CST-1368DR,4324,4662,11449,01.242,552
2023-04-12T12:52:16,42.805,6.029,CST-1368DR,4324,4666,11459,01.238,551
2023-04-12T12:55:18,42.805,6.029,CST-1368DR,4324,4663,11451,01.241,551
2023-04-12T12:58:19,42.805,6.029,CST-1368DR,4325,4715,11577,01.197,551
2023-04-12T13:01:21,42.805,6.029,CST-1368DR,4325,4714,11574,01.198,551
2023-04-12T13:04:23,42.805,6.029,CST-1368DR,4325,4717,11582,01.195,551
2023-04-12T13:07:24,42.805,6.029,CST-1368DR,4324,4713,11575,01.198,551
2023-04-12T13:10:26,42.805,6.029,CST-1368DR,4325,4714,11574,01.198,551
2023-04-12T13:13:27,42.805,6.029,CST-1368DR,4325,4713,11573,01.198,551
2023-04-12T13:16:29,42.805,6.029,CST-1368DR,4325,4716,11580,01.196,551
2023-04-12T13:19:31,42.805,6.029,CST-1368DR,4325,4711,11568,01.200,551
2023-04-12T13:22:32,42.805,6.029,CST-1368DR,4325,4714,11574,01.198,551
2023-04-12T13:25:34,42.805,6.029,CST-1368DR,4325,4714,11574,01.198,551
2023-04-12T13:28:35,42.805,6.029,CST-1368DR,4325,4706,11555,01.205,551
2023-04-12T13:31:37,42.805,6.029,CST-1368DR,4324,4700,11543,01.209,551
2023-04-12T13:34:38,42.805,6.029,CST-1368DR,4324,4702,11546,01.208,551
2023-04-12T13:37:40,42.805,6.029,CST-1368DR,4324,4698,11538,01.211,551
2023-04-12T13:40:42,42.805,6.029,CST-1368DR,4324,4696,11533,01.212,551
2023-04-12T13:43:43,42.805,6.029,CST-1368DR,4324,4697,11535,01.212,551
2023-04-12T13:46:45,42.805,6.029,CST-1368DR,4325,4697,11533,01.212,551
2023-04-12T13:49:46,42.805,6.029,CST-1368DR,4324,4700,11543,01.209,551
2023-04-12T13:52:48,42.805,6.029,CST-1368DR,4324,4699,11540,01.210,551
2023-04-12T13:55:49,42.805,6.029,CST-1368DR,4325,4702,11545,01.208,551
2023-04-12T13:58:51,42.805,6.029,CST-1368DR,4324,4702,11547,01.207,551
2023-04-12T14:01:53,42.805,6.029,CST-1368DR,4324,4699,11540,01.210,551
2023-04-12T14:04:54,42.805,6.029,CST-1368DR,4324,4699,11540,01.210,552
2023-04-12T14:07:56,42.805,6.029,CST-1368DR,4324,4697,11535,01.212,551
2023-04-12T14:10:57,42.805,6.029,CST-1368DR,4324,4694,11528,01.214,551
2023-04-12T14:13:59,42.805,6.029,CST-1368DR,4325,4705,11552,01.206,551
2023-04-12T14:17:01,42.805,6.029,CST-1368DR,4324,4708,11563,01.202,551
2023-04-12T14:20:02,42.805,6.029,CST-1368DR,4325,4710,11563,01.202,551
2023-04-12T14:23:04,42.805,6.029,CST-1368DR,4325,4709,11562,01.202,551
2023-04-12T14:26:05,42.805,6.029,CST-1368DR,4324,4710,11567,01.201,551
2023-04-12T14:29:07,42.805,6.029,CST-1368DR,4325,4706,11555,01.205,551
2023-04-12T14:32:08,42.805,6.029,CST-1368DR,4324,4706,11557,01.204,551
2023-04-12T14:35:10,42.805,6.029,CST-1368DR,4325,4708,11560,01.203,551
2023-04-12T14:38:12,42.805,6.029,CST-1368DR,4325,4705,11553,01.205,551
2023-04-12T14:41:13,42.805,6.029,CST-1368DR,4325,4705,11553,01.205,551
2023-04-12T14:44:15,42.805,6.029,CST-1368DR,4324,4707,11560,01.203,551
2023-04-12T14:47:16,42.805,6.029,CST-1368DR,4324,4706,11558,01.204,551
2023-04-12T14:50:18,42.805,6.029,CST-1368DR,4325,4730,11614,01.184,551
2023-04-12T14:53:19,42.805,6.029,CST-1368DR,4324,4712,11573,01.198,551
2023-04-12T14:56:21,42.805,6.029,CST-1368DR,4325,4731,11616,01.184,551
2023-04-12T14:59:23,42.805,6.029,CST-1368DR,4325,4726,11603,01.188,551
2023-04-12T15:02:24,42.805,6.029,CST-1368DR,4325,4732,11617,01.183,551
2023-04-12T15:05:26,42.805,6.029,CST-1368DR,4325,4721,11591,01.192,551
2023-04-12T15:08:27,42.805,6.029,CST-1368DR,4325,4718,11585,01.194,551
2023-04-12T15:11:29,42.805,6.029,CST-1368DR,4324,4708,11562,01.202,552
2023-04-12T15:14:31,42.805,6.029,CST-1368DR,4324,4648,11414,01.254,551
2023-04-12T15:17:32,42.805,6.029,CST-1368DR,4325,4742,11642,01.175,551
2023-04-12T15:20:34,42.805,6.029,CST-1368DR,4325,4733,11620,01.182,551
2023-04-12T15:23:35,42.805,6.029,CST-1368DR,4325,4738,11632,01.178,551
2023-04-12T15:26:37,42.805,6.029,CST-1368DR,4325,4736,11628,01.180,551
2023-04-12T15:29:38,42.805,6.029,CST-1368DR,4325,4736,11629,01.179,551
2023-04-12T15:32:40,42.805,6.029,CST-1368DR,4325,4742,11642,01.175,551
2023-04-12T15:35:42,42.805,6.029,CST-1368DR,4325,4741,11639,01.176,551
2023-04-12T15:38:43,42.805,6.029,CST-1368DR,4325,4741,11641,01.175,551
2023-04-12T15:41:45,42.805,6.029,CST-1368DR,4325,4742,11643,01.174,551
2023-04-12T15:44:46,42.805,6.029,CST-1368DR,4325,4744,11649,01.172,551
2023-04-12T15:47:48,42.805,6.029,CST-1368DR,4325,4732,11619,01.183,551
2023-04-12T15:50:49,42.805,6.029,CST-1368DR,4325,4741,11641,01.175,551
2023-04-12T15:53:51,42.805,6.029,CST-1368DR,4325,4736,11627,01.180,551
2023-04-12T15:56:53,42.805,6.029,CST-1368DR,4325,4741,11639,01.176,551
2023-04-12T15:59:54,42.805,6.029,CST-1368DR,4325,4739,11636,01.177,551
2023-04-12T16:02:56,42.805,6.029,CST-1368DR,4325,4737,11632,01.178,551
2023-04-12T16:05:57,42.805,6.029,CST-1368DR,4324,4731,11618,01.183,551
2023-04-12T16:08:59,42.805,6.029,CST-1368DR,4325,4735,11627,01.180,551
2023-04-12T16:12:00,42.805,6.029,CST-1368DR,4325,4741,11640,01.175,551
2023-04-12T16:15:02,42.805,6.029,CST-1368DR,4325,4738,11634,01.177,551
2023-04-12T16:18:04,42.805,6.029,CST-1368DR,4325,4740,11638,01.176,551
2023-04-12T16:21:05,42.805,6.029,CST-1368DR,4325,4739,11636,01.177,551
2023-04-12T16:24:07,42.805,6.029,CST-1368DR,4325,4746,11653,01.171,551
2023-04-12T16:27:08,42.805,6.029,CST-1368DR,4325,4739,11635,01.177,551
2023-04-12T16:30:13,42.805,6.029,CST-1368DR,4325,4737,11631,01.178,552
2023-04-12T16:33:15,42.805,6.029,CST-1368DR,4325,4740,11639,01.176,551
2023-04-12T16:36:16,42.805,6.029,CST-1368DR,4325,4741,11640,01.175,551